Tracking 17938 objects as of 24-February-2017
HD Live streaming from Space Station
objects crossing your sky now

RADIO 6

Track RADIO 6 now!
10-day predictions
RADIO 6 is classified as:


NORAD ID: 13002
Int'l Code: 1981-120F
Perigee: 1,586.4 km
Apogee: 1,667.2 km
Inclination: 83.0 °
Period: 118.6 minutes
Semi major axis: 7997 km
RCS: 0.8643 m2 (medium)
Launch date: December 17, 1981
Source: Commonwealth of Independent States (former USSR) (CIS)
Launch site: PLESETSK MISSILE AND SPACE COMPLEX (PKMTR)
Uplink (MHz):
Downlink (MHz):
Beacon (MHz):
Mode:
Call sign:
Status:

Your satellite tracking list
Your tracking list is empty





NASA's NSSDC Master Catalog

Two Line Element Set (TLE):
1 13002U 81120F   17053.92637539 +.00000002 +00000-0 -75675-4 0  9995
2 13002 082.9620 019.1625 0050522 306.0577 108.2884 12.13790630558811
Source of the keplerian elements: AFSPC